Regional Weather Roundup
Issued by NWS

Home | Current Version | Previous Version | Text Only | Print | Product List | Glossary Off
Versions: 1 2 3 4 5 6 7 8 9 10 11 12 13 14 15 16 17 18 19 20 21 22 23 24 25 26 27 28 29 30 31 32 33 34 35 36 37 38 39 40 41 42 43 44 45 46 47 48 49 50

000
ASUS45 KPSR 200110
RWRAZ

ARIZONA HOURLY REGIONAL WEATHER ROUNDUP
NATIONAL WEATHER SERVICE PHOENIX AZ
600 PM MST FRI JAN 19 2018

NOTE: FAIR INDICATES FEW OR NO CLOUDS BELOW 12,000 FEET WITH NO
SIGNIFICANT WEATHER AND/OR OBSTRUCTIONS TO VISIBILITY.

AZZ001>003-036-200200-
NORTHWEST ARIZONA

CITY           SKY/WX    TMP DP  RH WIND       PRES   REMARKS
BULLHEAD CITY  CLOUDY    73  28  19 S16       29.77F
KINGMAN        MOCLDY    61  29  29 S13       29.87F
$$

AZZ004>008-015-016-018-200200-
NORTH CENTRAL ARIZONA

CITY           SKY/WX    TMP DP  RH WIND       PRES   REMARKS
GRAND CANYON   PTCLDY    48  25  40 SW13      29.97S
WILLIAMS       PTCLDY    46  21  36 S10G18    29.97F
PRESCOTT       CLEAR     54  22  28 S7        29.97F
FLAGSTAFF      PTCLDY    43  20  39 SW9       30.01F
PAYSON         CLEAR     52  16  24 VRB3      30.01S
PAGE           MOCLDY    50  24  36 CALM      29.86F
$$

AZZ009>014-017-200200-
NORTHEAST ARIZONA

CITY           SKY/WX    TMP DP  RH WIND       PRES   REMARKS
WINSLOW        PTCLDY    59  23  25 SW16      29.95R
SAINT JOHNS    PTCLDY    55  10  16 W17       29.99R
WINDOW ROCK    PTCLDY    49  16  26 S5        30.00F
SHOW LOW       PTCLDY    50  10  20 S13G18    30.05R
$$

AZZ540-542>544-546-548-200200-
GREATER PHOENIX AREA

CITY           SKY/WX    TMP DP  RH WIND       PRES   REMARKS
PHOENIX        PTCLDY    73  27  18 E3        29.84F
BUCKEYE        CLEAR     66  32  28 E5        29.86S
GLENDALE       PTCLDY    72  34  25 CALM      29.87F
LUKE AFB       CLEAR     70  31  24 CALM      29.84F
DEER VALLEY    CLEAR     68  25  19 E3        29.86F
SCOTTSDALE     CLEAR     71  28  20 CALM      29.88F
MESA-FALCON    PTCLDY    73  25  16 VRB3      29.87F
MESA-GATEWAY   PTCLDY    72  25  17 VRB6      29.88F
$$

AZZ539-553-200200-
SOUTHWEST MARICOPA COUNTY AND PINAL COUNTY

CITY           SKY/WX    TMP DP  RH WIND       PRES   REMARKS
CASA GRANDE    NOT AVBL
GILA BEND      FAIR      72  25  17 N3        29.83F
$$

AZZ503-504-507>509-200200-
SOUTHEAST ARIZONA

CITY           SKY/WX    TMP DP  RH WIND       PRES   REMARKS
TUCSON         CLEAR     72  16  12 W7        29.93F
DAVIS-MONTHAN  CLEAR     71  18  13 SW3       29.91F
RYAN FIELD     CLEAR     72  12  10 SW8       29.92F
NOGALES        PTCLDY    62  13  14 S7        29.99S
SIERRA VISTA   CLEAR     61  10  13 SW10      30.02S
DOUGLAS        PTCLDY    57  16  20 SE8       30.00S
SAFFORD        CLEAR     61  18  18 W3        29.95F
$$

AZZ532-200200-
SOUTHWEST ARIZONA

CITY           SKY/WX    TMP DP  RH WIND       PRES   REMARKS
YUMA           NOT AVBL
$$

CAZ041-043-047-048-061-525>527-560>570-200200-
SOUTHERN CALIFORNIA

CITY           SKY/WX    TMP DP  RH WIND       PRES   REMARKS
DOWNTOWN L.A.  CLOUDY    60  51  72 VRB3      29.91F
L.A. AIRPORT   CLOUDY    59  52  77 W12       29.91F
SAN DIEGO      MOCLDY    60  57  89 W8        29.96F
BURBANK        CLOUDY    58  51  78 S7        29.89F
ONTARIO        CLOUDY    58  51  78 W9G18     29.90F
RIVERSIDE      CLOUDY    59  53  80 W13       29.90F
PALM SPRINGS   PTCLDY    70  40  33 E9        29.82F
EL CENTRO NAS  MOCLDY    73  42  32 S6        29.81F
IMPERIAL       MOCLDY    74  46  36 S8        29.78F
BLYTHE         MOCLDY    73  33  23 S13       29.80F
NEEDLES        CLOUDY    73  30  20 S9        29.79F
$$

NVZ020-UTZ003-200200-
SOUTHERN NEVADA-UTAH

CITY           SKY/WX    TMP DP  RH WIND       PRES   REMARKS
LAS VEGAS      CLOUDY    65  35  33 SW14G24   29.77F
SALT LAKE CITY LGT SNOW  36  34  92 NW16      29.91R FOG     WCI  26
$$

NMZ009-TXZ055-200200-
NEW MEXICO-WEST TEXAS

CITY           SKY/WX    TMP DP  RH WIND       PRES   REMARKS
ALBUQUERQUE    MOCLDY    51  13  21 SW8       29.99S
EL PASO        MOCLDY    57  19  22 SW7       29.99S
$$


........................KEY........................
SKY/WX - SKY CONDITION/WEATHER
TMP    - TEMPERATURE IN FAHRENHEIT
DP     - DEW POINT IN FAHRENHEIT
RH     - RELATIVE HUMIDITY IN PERCENT
WIND   - DIRECTION AND SPEED IN MILES PER HOUR (MPH)
VRB    - VARIABLE WIND DIRECTION
PRES   - MEAN SEA LEVEL PRESSURE IN INCHES OF MERCURY
         F - FALLING PRESSURE   R - RISING PRESSURE
         S - STEADY PRESSURE
VSB    - VISIBILITY IN MILES
HX     - HEAT INDEX IN FAHRENHEIT
WCI    - WIND CHILL INDEX IN FAHRENHEIT
TC     - TEMPERATURE IN CELSIUS WHICH IS ALSO KNOWN AS
         TEMPERATURE IN CENTIGRADE
AFB    - AIR FORCE BASE
         LUKE AFB IS LUKE AIR FORCE BASE
         DAVIS-MONTHAN IS DAVIS-MONTHAN AIR FORCE BASE
NAS    - NAVAL AIR STATION
         EL CENTRO NAS IS EL CENTRO NAVAL AIR STATION
N/A    - NOT AVAILABLE




USA.gov is the U.S. government's official web portal to all federal, state and local government web resources and services.